Location: Kernascl�den
(48.0062°N, 3.3198°W)
Time: 11:58:36
(UTC+00:00)

Meteor 1-11 - Pass Details

Date: 21 January 2021
Orbit: 840 x 887 km, 81.2° (Epoch: 06 March)

Event Time Altitude Azimuth Distance (km) Brightness Sun altitude
Rises 19:39:56 0° 188° (S) 3,452 7.5 -27.0°
Reaches altitude 10° 19:42:22 10° 188° (S) 2,512 6.7 -27.4°
Enters shadow 19:47:24 70° 181° (S) 918 4.2 -28.2°
